Weather History for Lincoln, NE

Change the Weather History Date:

Sunday, March 18, 2012

  Actual Average Record
Temperature  
Mean Temperature 71 °F 41 °F  
Max Temperature 80 °F 53 °F 87 °F (1921)
Min Temperature 62 °F 29 °F -7 °F (1923)
Degree Days  
Heating Degree Days 0 24  
Month to date heating degree days 270 493  
Since 1 July heating degree days 4664 5196  
Cooling Degree Days 6 0  
Month to date cooling degree days 13 0  
Year to date cooling degree days 13 0  
Growing Degree Days 20 (Base 50)    
Moisture  
Dew Point 59 °F    
Average Humidity 69    
Maximum Humidity 90    
Minimum Humidity 48    
Precipitation  
Precipitation 0.00 in 0.07 in 1.80 in (1979)
Month to date precipitation 0.23 0.97  
Year to date precipitation 2.49 2.38  
Snow  
Snow 0.00 in 0.10 in - ()
Month to date snowfall 0.0 3.1  
Since 1 July snowfall 18.8 22.8  
Snow Depth 0.00 in    
Sea Level Pressure  
Sea Level Pressure 29.68 in    
Wind  
Wind Speed 22 mph (South)    
Max Wind Speed 37 mph    
Max Gust Speed 45 mph    
Visibility 10 miles    
Events      
T = Trace of Precipitation, MM = Missing Value Source: NWS Daily Summary

Daily Weather History Graph

Daily Weather History Graph

Search for Another Location

Airport:

Trip Planner

Search our weather history database for the weather conditions in past years. The results will help you decide how hot, cold, wet, or windy it might be!

Date:

Astronomy

Mar. 18, 2012 Rise Set
Actual Time 7:32 AM CDT 7:37 PM CDT
Civil Twilight 7:05 AM CDT 8:04 PM CDT
Nautical Twilight 6:33 AM CDT 8:36 PM CDT
Astronomical Twilight 6:01 AM CDT 9:09 PM CDT
Moon 5:13 AM CDT (3/18) 4:04 PM CDT (3/18)
Length of Visible Light 12h 59m
Length of Day
12h 04m
Waning Crescent, 15% of the Moon is Illuminated
Mar 18
Waning Crescent
Mar 22
New
Mar 30
First Quarter
Apr 6
Full
Apr 13
Last Quarter

Hourly Weather History & Observations

Time (CDT) Temp. Dew Point Humidity Pressure Visibility Wind Dir Wind Speed Gust Speed Precip Events Conditions
12:54 AM 66.0 °F 60.1 °F 81% 29.72 in 10.0 mi South 16.1 mph - N/A   Clear
1:43 AM 66.2 °F 60.8 °F 83% 29.74 in 10.0 mi South 17.3 mph - N/A   Mostly Cloudy
1:54 AM 66.9 °F 60.1 °F 79% 29.71 in 10.0 mi South 19.6 mph 28.8 mph N/A   Mostly Cloudy
2:54 AM 66.9 °F 59.0 °F 76% 29.71 in 10.0 mi South 16.1 mph 26.5 mph N/A   Overcast
3:54 AM 66.0 °F 59.0 °F 78% 29.70 in 10.0 mi South 18.4 mph - N/A   Overcast
4:54 AM 66.0 °F 59.0 °F 78% 29.69 in 10.0 mi South 15.0 mph 23.0 mph N/A   Overcast
5:41 AM 64.4 °F 59.0 °F 83% 29.71 in 10.0 mi South 13.8 mph - N/A   Scattered Clouds
5:54 AM 63.0 °F 59.0 °F 87% 29.68 in 10.0 mi South 10.4 mph - N/A   Partly Cloudy
6:49 AM 62.6 °F 59.0 °F 88% 29.71 in 10.0 mi South 11.5 mph 18.4 mph N/A   Mostly Cloudy
6:54 AM 63.0 °F 57.9 °F 84% 29.68 in 10.0 mi North - - N/A   Mostly Cloudy
7:54 AM 64.0 °F 59.0 °F 84% 29.69 in 10.0 mi South 17.3 mph - N/A   Overcast
8:54 AM 66.0 °F 57.9 °F 75% 29.70 in 10.0 mi South 19.6 mph 25.3 mph N/A   Overcast
9:54 AM 66.9 °F 57.9 °F 73% 29.71 in 10.0 mi SSW 21.9 mph 29.9 mph N/A   Overcast
10:51 AM 71.6 °F 57.2 °F 60% 29.73 in 10.0 mi SSW 24.2 mph 31.1 mph N/A   Scattered Clouds
10:54 AM 71.1 °F 57.9 °F 63% 29.70 in 10.0 mi SSW 23.0 mph 31.1 mph N/A   Partly Cloudy
11:54 AM 73.9 °F 57.9 °F 57% 29.70 in 10.0 mi SSW 21.9 mph 29.9 mph N/A   Clear
12:54 PM 78.1 °F 57.9 °F 50% 29.68 in 10.0 mi South 24.2 mph 33.4 mph N/A   Clear
1:54 PM 79.0 °F 57.0 °F 47% 29.66 in 10.0 mi South 28.8 mph 36.8 mph N/A   Clear
2:54 PM 75.9 °F 57.0 °F 52% 29.65 in 10.0 mi South 27.6 mph 38.0 mph N/A   Clear
3:54 PM 79.0 °F 59.0 °F 50% 29.63 in 10.0 mi South 24.2 mph 36.8 mph N/A   Mostly Cloudy
4:54 PM 75.9 °F 59.0 °F 56% 29.63 in 10.0 mi South 25.3 mph 35.7 mph N/A   Partly Cloudy
5:54 PM 75.9 °F 57.9 °F 54% 29.63 in 10.0 mi South 25.3 mph 38.0 mph N/A   Clear
6:54 PM 73.0 °F 57.9 °F 59% 29.65 in 10.0 mi South 33.4 mph 44.9 mph N/A   Scattered Clouds
7:54 PM 70.0 °F 57.9 °F 65% 29.65 in 10.0 mi South 21.9 mph 29.9 mph N/A   Partly Cloudy
8:54 PM 68.0 °F 59.0 °F 73% 29.64 in 10.0 mi SSE 25.3 mph - N/A   Clear
9:54 PM 68.0 °F 59.0 °F 73% 29.64 in 10.0 mi South 25.3 mph 38.0 mph N/A   Clear
10:54 PM 66.9 °F 59.0 °F 76% 29.64 in 10.0 mi South 21.9 mph 33.4 mph N/A   Scattered Clouds
11:38 PM 66.2 °F 59.0 °F 78% 29.68 in 10.0 mi South 21.9 mph 29.9 mph N/A   Mostly Cloudy
11:54 PM 66.9 °F 59.0 °F 76% 29.65 in 10.0 mi South 17.3 mph 26.5 mph N/A   Overcast